621  
ASGM40 PGUM 291412  
RWRGUM  
WEATHER ROUNDUP FOR THE MARIANAS  
NATIONAL WEATHER SERVICE TIYAN GU  
1200 AM CHST THU MAR 30 2017  
 
GUZ001>004-291500-  
MARIANA ISLANDS-  
 
CITY SKY/WX TMP DP RH WIND PRES REMARKS
 
GUAM AIRPORT LGT RAIN 75 75 100 NE13G23 30.02S FOG  
ANDERSEN AFB RAIN 75 73 94 E18G26 30.03S VSB 1/2  
ROTA AIRPORT NOT AVBL  
TINIAN AP NOT AVBL  
SAIPAN AP CLOUDY 79 73 83 NE21G28 30.04R  
 

 
 
 
 
CLICK HERE TO GO TO PREVIOUS BULLETINS.

The Nexlab GU Page Main Text Page